Time,TemperatureF,DewpointF,PressureIn,WindDirection,WindDirectionDegrees,WindSpeedMPH,WindSpeedGustMPH,Humidity,HourlyPrecipIn,Conditions,Clouds,dailyrainin,SoftwareType,DateUTC
2013-01-06 00:00:00,65.2,61.9,30.19,NNW,336,0.0,0.0,89,0.00,,,0.00,Wunderground v.1.13,2013-01-06 05:00:00,
2013-01-06 00:02:00,65.2,61.9,30.19,NNW,336,0.0,0.0,89,0.00,,,0.00,Wunderground v.1.13,2013-01-06 05:02:00,
2013-01-06 00:05:00,65.3,62.0,30.19,NNW,336,0.0,0.0,89,0.00,,,0.00,Wunderground v.1.13,2013-01-06 05:05:00,
2013-01-06 00:08:00,65.3,62.0,30.19,NNW,336,0.0,0.0,89,0.00,,,0.00,Wunderground v.1.13,2013-01-06 05:08:00,
2013-01-06 00:14:00,65.4,62.1,30.19,NNW,336,3.0,3.0,89,0.00,,,0.00,Wunderground v.1.13,2013-01-06 05:14:00,
2013-01-06 00:17:00,65.5,62.2,30.19,NNW,336,0.0,1.0,89,0.00,,,0.00,Wunderground v.1.13,2013-01-06 05:17:00,
2013-01-06 00:22:00,65.6,62.3,30.19,NNW,336,0.0,1.0,89,0.00,,,0.00,Wunderground v.1.13,2013-01-06 05:22:00,
2013-01-06 00:27:00,65.7,62.4,30.18,NNW,336,0.0,0.0,89,0.00,,,0.00,Wunderground v.1.13,2013-01-06 05:27:00,
2013-01-06 00:33:00,65.7,62.4,30.18,NNW,336,0.0,0.0,89,0.00,,,0.00,Wunderground v.1.13,2013-01-06 05:33:00,
2013-01-06 00:39:00,65.7,62.4,30.18,NNW,336,0.0,0.0,89,0.00,,,0.00,Wunderground v.1.13,2013-01-06 05:39:00,
2013-01-06 00:45:00,65.7,62.4,30.17,NNW,336,0.0,0.0,89,0.00,,,0.00,Wunderground v.1.13,2013-01-06 05:45:00,
2013-01-06 00:50:00,65.6,62.3,30.17,NNW,336,0.0,0.0,89,0.00,,,0.00,Wunderground v.1.13,2013-01-06 05:50:00,
2013-01-06 00:55:00,65.6,62.3,30.17,NNW,336,0.0,0.0,89,0.00,,,0.00,Wunderground v.1.13,2013-01-06 05:55:00,
2013-01-06 01:00:00,65.5,62.2,30.17,NNW,336,0.0,0.0,89,0.00,,,0.00,Wunderground v.1.13,2013-01-06 06:00:00,
2013-01-06 01:06:00,65.4,62.1,30.17,NNW,336,0.0,0.0,89,0.00,,,0.00,Wunderground v.1.13,2013-01-06 06:06:00,
2013-01-06 01:12:00,65.2,61.9,30.17,NNW,335,0.0,0.0,89,0.00,,,0.00,Wunderground v.1.13,2013-01-06 06:12:00,
2013-01-06 01:18:00,65.1,62.1,30.16,NNW,336,0.0,0.0,90,0.00,,,0.00,Wunderground v.1.13,2013-01-06 06:18:00,
2013-01-06 01:23:00,64.9,61.9,30.16,NNW,336,0.0,0.0,90,0.00,,,0.00,Wunderground v.1.13,2013-01-06 06:23:00,
2013-01-06 01:29:00,64.8,61.8,30.16,NNW,336,0.0,0.0,90,0.00,,,0.00,Wunderground v.1.13,2013-01-06 06:29:00,
2013-01-06 01:34:00,64.6,61.6,30.16,NNW,336,0.0,0.0,90,0.00,,,0.00,Wunderground v.1.13,2013-01-06 06:34:00,
2013-01-06 01:39:00,64.4,61.4,30.16,NNW,336,0.0,0.0,90,0.00,,,0.00,Wunderground v.1.13,2013-01-06 06:39:00,
2013-01-06 01:45:00,64.1,61.4,30.16,NNW,336,0.0,0.0,91,0.00,,,0.00,Wunderground v.1.13,2013-01-06 06:45:00,
2013-01-06 01:50:00,63.9,61.2,30.16,NNW,336,0.0,0.0,91,0.00,,,0.00,Wunderground v.1.13,2013-01-06 06:50:00,
2013-01-06 01:56:00,63.6,60.9,30.16,NNW,336,0.0,0.0,91,0.00,,,0.00,Wunderground v.1.13,2013-01-06 06:56:00,
2013-01-06 02:01:00,63.5,60.8,30.16,NNW,336,0.0,0.0,91,0.00,,,0.00,Wunderground v.1.13,2013-01-06 07:01:00,
2013-01-06 02:07:00,63.4,60.7,30.16,NNW,336,0.0,0.0,91,0.00,,,0.00,Wunderground v.1.13,2013-01-06 07:07:00,
2013-01-06 02:12:00,63.2,60.8,30.16,NNW,336,0.0,0.0,92,0.00,,,0.00,Wunderground v.1.13,2013-01-06 07:12:00,
2013-01-06 02:17:00,63.1,60.7,30.16,NNW,336,0.0,0.0,92,0.00,,,0.00,Wunderground v.1.13,2013-01-06 07:17:00,
2013-01-06 02:22:00,63.0,60.6,30.16,NNW,336,0.0,0.0,92,0.00,,,0.00,Wunderground v.1.13,2013-01-06 07:22:00,
2013-01-06 02:27:00,63.1,60.7,30.16,NNW,336,0.0,0.0,92,0.00,,,0.00,Wunderground v.1.13,2013-01-06 07:27:00,
2013-01-06 02:32:00,63.0,60.6,30.16,NNW,336,0.0,0.0,92,0.00,,,0.00,Wunderground v.1.13,2013-01-06 07:32:00,
2013-01-06 02:37:00,63.0,60.6,30.16,NNW,336,0.0,0.0,92,0.00,,,0.00,Wunderground v.1.13,2013-01-06 07:37:00,
2013-01-06 02:42:00,62.9,60.5,30.16,NNW,336,0.0,1.0,92,0.00,,,0.00,Wunderground v.1.13,2013-01-06 07:42:00,
2013-01-06 02:47:00,63.0,60.9,30.15,NNW,336,0.0,0.0,93,0.00,,,0.00,Wunderground v.1.13,2013-01-06 07:47:00,
2013-01-06 02:53:00,63.1,61.0,30.15,NNW,336,0.0,0.0,93,0.00,,,0.00,Wunderground v.1.13,2013-01-06 07:53:00,
2013-01-06 02:58:00,63.1,61.0,30.15,NNW,336,0.0,0.0,93,0.00,,,0.00,Wunderground v.1.13,2013-01-06 07:58:00,
2013-01-06 03:03:00,63.0,60.9,30.15,NNW,336,0.0,0.0,93,0.00,,,0.00,Wunderground v.1.13,2013-01-06 08:03:00,
2013-01-06 03:08:00,63.0,60.9,30.15,NNW,336,0.0,0.0,93,0.00,,,0.00,Wunderground v.1.13,2013-01-06 08:08:00,
2013-01-06 03:13:00,62.9,60.8,30.15,NNW,336,0.0,0.0,93,0.00,,,0.00,Wunderground v.1.13,2013-01-06 08:13:00,
2013-01-06 03:19:00,62.9,60.8,30.15,NNW,336,0.0,0.0,93,0.00,,,0.00,Wunderground v.1.13,2013-01-06 08:19:00,
2013-01-06 03:24:00,63.0,60.9,30.14,NNW,336,0.0,0.0,93,0.00,,,0.00,Wunderground v.1.13,2013-01-06 08:24:00,
2013-01-06 03:29:00,63.0,60.9,30.14,NNW,336,0.0,0.0,93,0.00,,,0.00,Wunderground v.1.13,2013-01-06 08:29:00,
2013-01-06 03:34:00,63.0,60.9,30.14,NNW,336,0.0,0.0,93,0.00,,,0.00,Wunderground v.1.13,2013-01-06 08:34:00,
2013-01-06 03:39:00,63.0,60.9,30.14,NNW,336,0.0,0.0,93,0.00,,,0.00,Wunderground v.1.13,2013-01-06 08:39:00,
2013-01-06 03:44:00,62.9,60.8,30.14,NNW,336,0.0,0.0,93,0.00,,,0.00,Wunderground v.1.13,2013-01-06 08:44:00,
2013-01-06 03:49:00,62.8,61.0,30.14,NNW,336,0.0,0.0,94,0.00,,,0.00,Wunderground v.1.13,2013-01-06 08:49:00,
2013-01-06 03:54:00,62.7,60.9,30.14,NNW,335,0.0,0.0,94,0.00,,,0.00,Wunderground v.1.13,2013-01-06 08:54:00,
2013-01-06 04:00:00,62.6,60.8,30.14,NNW,336,0.0,0.0,94,0.00,,,0.00,Wunderground v.1.13,2013-01-06 09:00:00,
2013-01-06 04:05:00,62.6,60.8,30.14,NNW,336,0.0,0.0,94,0.00,,,0.00,Wunderground v.1.13,2013-01-06 09:05:00,
2013-01-06 04:10:00,62.6,60.8,30.14,NNW,336,0.0,0.0,94,0.00,,,0.00,Wunderground v.1.13,2013-01-06 09:10:00,
2013-01-06 04:15:00,62.5,60.7,30.13,NNW,336,0.0,0.0,94,0.00,,,0.00,Wunderground v.1.13,2013-01-06 09:15:00,
2013-01-06 04:20:00,62.4,60.7,30.13,NNW,336,0.0,0.0,94,0.00,,,0.00,Wunderground v.1.13,2013-01-06 09:20:00,
2013-01-06 04:25:00,62.3,60.6,30.13,NNW,336,0.0,0.0,94,0.00,,,0.00,Wunderground v.1.13,2013-01-06 09:25:00,
2013-01-06 04:31:00,62.2,60.5,30.13,NNW,336,0.0,0.0,94,0.00,,,0.00,Wunderground v.1.13,2013-01-06 09:31:00,
2013-01-06 04:36:00,62.1,60.4,30.13,NNW,335,0.0,0.0,94,0.00,,,0.00,Wunderground v.1.13,2013-01-06 09:36:00,
2013-01-06 04:41:00,62.0,60.3,30.13,NNW,336,0.0,0.0,94,0.00,,,0.00,Wunderground v.1.13,2013-01-06 09:41:00,
2013-01-06 04:46:00,61.8,60.1,30.13,NNW,336,0.0,0.0,94,0.00,,,0.00,Wunderground v.1.13,2013-01-06 09:46:00,
2013-01-06 04:51:00,61.6,59.9,30.13,NNW,336,0.0,0.0,94,0.00,,,0.00,Wunderground v.1.13,2013-01-06 09:51:00,
2013-01-06 04:56:00,61.5,59.8,30.12,NNW,336,0.0,0.0,94,0.00,,,0.00,Wunderground v.1.13,2013-01-06 09:56:00,
2013-01-06 05:01:00,61.5,59.8,30.12,NNW,334,0.0,0.0,94,0.00,,,0.00,Wunderground v.1.13,2013-01-06 10:01:00,
2013-01-06 05:06:00,61.4,59.7,30.12,NNW,336,0.0,0.0,94,0.00,,,0.00,Wunderground v.1.13,2013-01-06 10:06:00,
2013-01-06 05:11:00,61.2,59.5,30.12,NNW,336,0.0,0.0,94,0.00,,,0.00,Wunderground v.1.13,2013-01-06 10:11:00,
2013-01-06 05:16:00,61.1,59.4,30.12,NNW,336,0.0,0.0,94,0.00,,,0.00,Wunderground v.1.13,2013-01-06 10:16:00,
2013-01-06 05:21:00,61.1,59.4,30.12,NNW,336,0.0,0.0,94,0.00,,,0.00,Wunderground v.1.13,2013-01-06 10:21:00,
2013-01-06 05:26:00,61.0,59.3,30.12,NNW,336,0.0,0.0,94,0.00,,,0.00,Wunderground v.1.13,2013-01-06 10:26:00,
2013-01-06 05:31:00,60.9,59.2,30.12,NNW,336,0.0,0.0,94,0.00,,,0.00,Wunderground v.1.13,2013-01-06 10:31:00,
2013-01-06 05:37:00,60.8,59.1,30.12,NNW,336,0.0,0.0,94,0.00,,,0.00,Wunderground v.1.13,2013-01-06 10:37:00,
2013-01-06 05:42:00,60.7,59.0,30.12,NNW,336,0.0,0.0,94,0.00,,,0.00,Wunderground v.1.13,2013-01-06 10:42:00,
2013-01-06 05:47:00,60.7,59.0,30.12,NNW,336,0.0,0.0,94,0.00,,,0.00,Wunderground v.1.13,2013-01-06 10:47:00,
2013-01-06 05:52:00,60.7,59.0,30.12,NNW,336,0.0,0.0,94,0.00,,,0.00,Wunderground v.1.13,2013-01-06 10:52:00,
2013-01-06 05:57:00,60.8,59.1,30.12,NNW,336,0.0,0.0,94,0.00,,,0.00,Wunderground v.1.13,2013-01-06 10:57:00,
2013-01-06 06:03:00,61.2,59.5,30.12,NNW,336,0.0,0.0,94,0.00,,,0.00,Wunderground v.1.13,2013-01-06 11:03:00,
2013-01-06 06:08:00,61.6,60.2,30.12,NNW,336,0.0,0.0,95,0.00,,,0.00,Wunderground v.1.13,2013-01-06 11:08:00,
2013-01-06 06:13:00,62.0,60.3,30.12,NNW,335,0.0,0.0,94,0.00,,,0.00,Wunderground v.1.13,2013-01-06 11:13:00,
2013-01-06 06:18:00,62.4,60.9,30.12,NNW,336,0.0,0.0,95,0.00,,,0.00,Wunderground v.1.13,2013-01-06 11:18:00,
2013-01-06 06:23:00,62.7,61.2,30.12,NNW,336,0.0,0.0,95,0.00,,,0.00,Wunderground v.1.13,2013-01-06 11:23:00,
2013-01-06 06:28:00,62.9,61.4,30.12,NNW,336,1.0,3.0,95,0.00,,,0.00,Wunderground v.1.13,2013-01-06 11:28:00,
2013-01-06 06:33:00,62.9,61.4,30.12,NNW,336,2.0,4.0,95,0.00,,,0.00,Wunderground v.1.13,2013-01-06 11:33:00,
2013-01-06 06:38:00,62.7,61.2,30.13,NNW,336,1.0,3.0,95,0.00,,,0.00,Wunderground v.1.13,2013-01-06 11:38:00,
2013-01-06 06:44:00,62.6,61.1,30.13,NNW,337,1.0,3.0,95,0.00,,,0.00,Wunderground v.1.13,2013-01-06 11:44:00,
2013-01-06 06:49:00,62.5,61.0,30.13,NNW,338,0.0,4.0,95,0.00,,,0.00,Wunderground v.1.13,2013-01-06 11:49:00,
2013-01-06 06:54:00,62.4,60.9,30.13,NNW,337,0.0,1.0,95,0.00,,,0.00,Wunderground v.1.13,2013-01-06 11:54:00,
2013-01-06 06:59:00,62.5,61.0,30.13,NNW,337,0.0,0.0,95,0.00,,,0.00,Wunderground v.1.13,2013-01-06 11:59:00,
2013-01-06 07:04:00,62.5,61.0,30.13,NNW,337,0.0,0.0,95,0.00,,,0.00,Wunderground v.1.13,2013-01-06 12:04:00,
2013-01-06 07:09:00,62.6,61.1,30.13,NNW,338,0.0,6.0,95,0.00,,,0.00,Wunderground v.1.13,2013-01-06 12:09:00,
2013-01-06 07:14:00,62.6,61.1,30.13,NNW,338,0.0,1.0,95,0.00,,,0.00,Wunderground v.1.13,2013-01-06 12:14:00,
2013-01-06 07:20:00,62.5,61.0,30.13,NNW,338,3.0,3.0,95,0.00,,,0.00,Wunderground v.1.13,2013-01-06 12:20:00,
2013-01-06 07:25:00,62.5,61.0,30.13,NNW,338,2.0,3.0,95,0.00,,,0.00,Wunderground v.1.13,2013-01-06 12:25:00,
2013-01-06 07:30:00,62.5,61.0,30.13,NNW,338,2.0,3.0,95,0.00,,,0.00,Wunderground v.1.13,2013-01-06 12:30:00,
2013-01-06 07:35:00,62.5,61.0,30.13,NNW,338,2.0,3.0,95,0.00,,,0.00,Wunderground v.1.13,2013-01-06 12:35:00,
2013-01-06 07:40:00,62.6,61.1,30.13,West,277,3.0,4.0,95,0.00,,,0.00,Wunderground v.1.13,2013-01-06 12:40:00,
2013-01-06 07:45:00,62.7,61.2,30.13,SSE,165,0.0,2.0,95,0.00,,,0.00,Wunderground v.1.13,2013-01-06 12:45:00,
2013-01-06 07:50:00,62.8,61.3,30.14,SSE,166,1.0,1.0,95,0.00,,,0.00,Wunderground v.1.13,2013-01-06 12:50:00,
2013-01-06 07:55:00,62.9,61.4,30.14,SSE,166,1.0,1.0,95,0.00,,,0.00,Wunderground v.1.13,2013-01-06 12:55:00,
2013-01-06 08:00:00,63.0,61.5,30.14,SSE,166,0.0,0.0,95,0.00,,,0.00,Wunderground v.1.13,2013-01-06 13:00:00,
2013-01-06 08:05:00,63.1,61.6,30.14,SSE,165,0.0,0.0,95,0.00,,,0.00,Wunderground v.1.13,2013-01-06 13:05:00,
2013-01-06 08:11:00,63.1,61.6,30.14,SSE,166,0.0,0.0,95,0.00,,,0.00,Wunderground v.1.13,2013-01-06 13:11:00,
2013-01-06 08:16:00,63.2,61.7,30.14,SSE,166,0.0,2.0,95,0.00,,,0.00,Wunderground v.1.13,2013-01-06 13:16:00,
2013-01-06 08:21:00,63.2,61.7,30.14,SSE,166,0.0,2.0,95,0.00,,,0.00,Wunderground v.1.13,2013-01-06 13:21:00,
2013-01-06 08:26:00,63.3,61.8,30.14,SSE,166,0.0,1.0,95,0.00,,,0.00,Wunderground v.1.13,2013-01-06 13:26:00,
2013-01-06 08:31:00,63.3,61.8,30.14,SSE,166,1.0,3.0,95,0.00,,,0.00,Wunderground v.1.13,2013-01-06 13:31:00,
2013-01-06 08:36:00,63.4,61.9,30.14,SSE,165,0.0,2.0,95,0.00,,,0.00,Wunderground v.1.13,2013-01-06 13:36:00,
2013-01-06 08:42:00,63.4,61.9,30.15,SSE,166,0.0,1.0,95,0.00,,,0.00,Wunderground v.1.13,2013-01-06 13:42:00,
2013-01-06 08:47:00,63.6,62.1,30.14,SSE,165,0.0,0.0,95,0.00,,,0.00,Wunderground v.1.13,2013-01-06 13:47:00,
2013-01-06 08:52:00,63.7,62.2,30.14,South,169,0.0,3.0,95,0.00,,,0.00,Wunderground v.1.13,2013-01-06 13:52:00,
2013-01-06 08:57:00,63.8,62.3,30.14,South,170,1.0,2.0,95,0.00,,,0.00,Wunderground v.1.13,2013-01-06 13:57:00,
2013-01-06 09:02:00,63.9,62.4,30.15,South,171,1.0,3.0,95,0.00,,,0.00,Wunderground v.1.13,2013-01-06 14:02:00,
2013-01-06 09:07:00,64.1,62.6,30.15,South,171,0.0,1.0,95,0.00,,,0.00,Wunderground v.1.13,2013-01-06 14:07:00,
2013-01-06 09:13:00,64.3,62.8,30.15,South,171,0.0,0.0,95,0.00,,,0.00,Wunderground v.1.13,2013-01-06 14:13:00,
2013-01-06 09:18:00,64.3,62.8,30.15,South,171,0.0,0.0,95,0.00,,,0.00,Wunderground v.1.13,2013-01-06 14:18:00,
2013-01-06 09:23:00,64.4,62.9,30.15,South,171,2.0,4.0,95,0.00,,,0.00,Wunderground v.1.13,2013-01-06 14:23:00,
2013-01-06 09:28:00,64.5,63.0,30.15,South,171,0.0,0.0,95,0.00,,,0.00,Wunderground v.1.13,2013-01-06 14:28:00,
2013-01-06 09:33:00,64.5,63.0,30.15,SSE,160,0.0,2.0,95,0.00,,,0.00,Wunderground v.1.13,2013-01-06 14:33:00,
2013-01-06 09:38:00,64.7,63.2,30.16,SSE,161,0.0,0.0,95,0.00,,,0.00,Wunderground v.1.13,2013-01-06 14:38:00,
2013-01-06 09:43:00,64.8,63.3,30.16,SSE,161,0.0,1.0,95,0.00,,,0.00,Wunderground v.1.13,2013-01-06 14:43:00,
2013-01-06 09:48:00,64.9,63.4,30.16,SSE,160,0.0,0.0,95,0.00,,,0.00,Wunderground v.1.13,2013-01-06 14:48:00,
2013-01-06 09:53:00,65.0,63.5,30.16,SSE,161,3.0,3.0,95,0.00,,,0.00,Wunderground v.1.13,2013-01-06 14:53:00,
2013-01-06 09:58:00,65.0,63.5,30.16,SSE,161,0.0,2.0,95,0.00,,,0.00,Wunderground v.1.13,2013-01-06 14:58:00,
2013-01-06 10:03:00,65.1,63.6,30.16,SSE,160,0.0,2.0,95,0.00,,,0.00,Wunderground v.1.13,2013-01-06 15:03:00,
2013-01-06 10:09:00,65.1,63.6,30.17,SSE,154,2.0,3.0,95,0.00,,,0.00,Wunderground v.1.13,2013-01-06 15:09:00,
2013-01-06 10:14:00,65.4,63.9,30.16,SSE,155,0.0,1.0,95,0.00,,,0.00,Wunderground v.1.13,2013-01-06 15:14:00,
2013-01-06 10:19:00,65.6,64.1,30.16,SSE,154,0.0,0.0,95,0.00,,,0.00,Wunderground v.1.13,2013-01-06 15:19:00,
2013-01-06 10:24:00,65.8,64.3,30.16,SSE,155,0.0,0.0,95,0.00,,,0.00,Wunderground v.1.13,2013-01-06 15:24:00,
2013-01-06 10:29:00,66.2,64.7,30.16,SSE,155,0.0,0.0,95,0.00,,,0.00,Wunderground v.1.13,2013-01-06 15:29:00,
2013-01-06 10:34:00,66.5,65.0,30.17,SSE,155,0.0,0.0,95,0.00,,,0.00,Wunderground v.1.13,2013-01-06 15:34:00,
2013-01-06 10:39:00,66.2,64.7,30.16,SE,132,0.0,3.0,95,0.00,,,0.00,Wunderground v.1.13,2013-01-06 15:39:00,
2013-01-06 10:45:00,66.2,64.7,30.16,SE,132,0.0,1.0,95,0.00,,,0.00,Wunderground v.1.13,2013-01-06 15:45:00,
2013-01-06 10:50:00,66.4,64.9,30.16,SE,132,0.0,0.0,95,0.00,,,0.00,Wunderground v.1.13,2013-01-06 15:50:00,
2013-01-06 10:55:00,66.8,65.3,30.16,SE,132,0.0,0.0,95,0.00,,,0.00,Wunderground v.1.13,2013-01-06 15:55:00,
2013-01-06 11:00:00,66.7,65.2,30.16,SE,129,0.0,0.0,95,0.00,,,0.00,Wunderground v.1.13,2013-01-06 16:00:00,
2013-01-06 11:05:00,67.4,65.9,30.16,SE,130,0.0,0.0,95,0.00,,,0.00,Wunderground v.1.13,2013-01-06 16:05:00,
2013-01-06 11:10:00,67.6,66.1,30.15,SE,130,0.0,0.0,95,0.00,,,0.00,Wunderground v.1.13,2013-01-06 16:10:00,
2013-01-06 11:15:00,67.4,65.9,30.15,SE,130,0.0,0.0,95,0.00,,,0.00,Wunderground v.1.13,2013-01-06 16:15:00,
2013-01-06 11:20:00,67.6,66.4,30.15,SE,130,0.0,0.0,96,0.00,,,0.00,Wunderground v.1.13,2013-01-06 16:20:00,
2013-01-06 11:25:00,67.6,66.4,30.14,ESE,119,0.0,3.0,96,0.00,,,0.00,Wunderground v.1.13,2013-01-06 16:25:00,
2013-01-06 11:30:00,68.0,66.8,30.14,ESE,118,2.0,2.0,96,0.00,,,0.00,Wunderground v.1.13,2013-01-06 16:30:00,
2013-01-06 11:35:00,68.5,67.3,30.13,ESE,119,0.0,0.0,96,0.00,,,0.00,Wunderground v.1.13,2013-01-06 16:35:00,
2013-01-06 11:40:00,69.3,68.1,30.14,ESE,118,0.0,1.0,96,0.00,,,0.00,Wunderground v.1.13,2013-01-06 16:40:00,
2013-01-06 11:45:00,70.2,69.0,30.13,ESE,118,0.0,0.0,96,0.00,,,0.00,Wunderground v.1.13,2013-01-06 16:45:00,
2013-01-06 11:51:00,70.7,69.2,30.13,ESE,119,3.0,3.0,95,0.00,,,0.00,Wunderground v.1.13,2013-01-06 16:51:00,
2013-01-06 11:56:00,71.2,69.1,30.12,ESE,123,2.0,4.0,93,0.00,,,0.00,Wunderground v.1.13,2013-01-06 16:56:00,
2013-01-06 12:01:00,71.5,69.1,30.12,SE,137,2.0,3.0,92,0.00,,,0.00,Wunderground v.1.13,2013-01-06 17:01:00,
2013-01-06 12:06:00,71.4,68.6,30.12,SE,139,2.0,5.0,91,0.00,,,0.00,Wunderground v.1.13,2013-01-06 17:06:00,
2013-01-06 12:11:00,71.4,68.6,30.12,SE,139,1.0,4.0,91,0.00,,,0.00,Wunderground v.1.13,2013-01-06 17:11:00,
2013-01-06 12:16:00,72.1,69.3,30.12,SE,137,0.0,3.0,91,0.00,,,0.00,Wunderground v.1.13,2013-01-06 17:16:00,
2013-01-06 12:21:00,72.9,69.8,30.12,SE,137,0.0,1.0,90,0.00,,,0.00,Wunderground v.1.13,2013-01-06 17:21:00,
2013-01-06 12:27:00,73.2,69.4,30.11,SE,139,5.0,5.0,88,0.00,,,0.00,Wunderground v.1.13,2013-01-06 17:27:00,
2013-01-06 12:32:00,73.5,69.7,30.11,SE,138,0.0,3.0,88,0.00,,,0.00,Wunderground v.1.13,2013-01-06 17:32:00,
2013-01-06 12:37:00,74.3,70.2,30.10,SE,139,0.0,2.0,87,0.00,,,0.00,Wunderground v.1.13,2013-01-06 17:37:00,
2013-01-06 12:42:00,74.9,70.4,30.10,SE,139,2.0,2.0,86,0.00,,,0.00,Wunderground v.1.13,2013-01-06 17:42:00,
2013-01-06 12:47:00,75.2,70.4,30.10,SE,139,1.0,1.0,85,0.00,,,0.00,Wunderground v.1.13,2013-01-06 17:47:00,
2013-01-06 12:52:00,75.5,70.7,30.10,SE,138,0.0,0.0,85,0.00,,,0.00,Wunderground v.1.13,2013-01-06 17:52:00,
2013-01-06 12:57:00,76.0,71.2,30.09,SE,139,0.0,0.0,85,0.00,,,0.00,Wunderground v.1.13,2013-01-06 17:57:00,
2013-01-06 13:02:00,76.4,70.9,30.09,SE,139,0.0,0.0,83,0.00,,,0.00,Wunderground v.1.13,2013-01-06 18:02:00,
2013-01-06 13:07:00,76.8,71.2,30.08,SE,139,0.0,0.0,83,0.00,,,0.00,Wunderground v.1.13,2013-01-06 18:07:00,
2013-01-06 13:13:00,76.8,70.9,30.08,SE,139,2.0,3.0,82,0.00,,,0.00,Wunderground v.1.13,2013-01-06 18:13:00,
2013-01-06 13:18:00,77.1,71.2,30.08,SE,139,0.0,1.0,82,0.00,,,0.00,Wunderground v.1.13,2013-01-06 18:18:00,
2013-01-06 13:23:00,78.0,71.7,30.08,SE,139,4.0,5.0,81,0.00,,,0.00,Wunderground v.1.13,2013-01-06 18:23:00,
2013-01-06 13:28:00,78.0,71.3,30.08,SE,139,0.0,4.0,80,0.00,,,0.00,Wunderground v.1.13,2013-01-06 18:28:00,
2013-01-06 13:33:00,78.6,71.5,30.07,SE,139,0.0,1.0,79,0.00,,,0.00,Wunderground v.1.13,2013-01-06 18:33:00,
2013-01-06 13:38:00,78.6,70.8,30.07,SE,139,4.0,4.0,77,0.00,,,0.00,Wunderground v.1.13,2013-01-06 18:38:00,
2013-01-06 13:43:00,78.3,70.9,30.07,SSE,148,3.0,6.0,78,0.00,,,0.00,Wunderground v.1.13,2013-01-06 18:43:00,
2013-01-06 13:48:00,77.9,70.1,30.07,SSE,148,2.0,4.0,77,0.00,,,0.00,Wunderground v.1.13,2013-01-06 18:48:00,
2013-01-06 13:54:00,77.8,70.4,30.07,SSE,148,2.0,4.0,78,0.00,,,0.00,Wunderground v.1.13,2013-01-06 18:54:00,
2013-01-06 13:59:00,78.0,70.2,30.06,SSE,148,2.0,5.0,77,0.00,,,0.00,Wunderground v.1.13,2013-01-06 18:59:00,
2013-01-06 14:04:00,77.9,70.5,30.06,SSE,148,4.0,6.0,78,0.00,,,0.00,Wunderground v.1.13,2013-01-06 19:04:00,
2013-01-06 14:09:00,78.0,70.6,30.06,SSE,148,2.0,3.0,78,0.00,,,0.00,Wunderground v.1.13,2013-01-06 19:09:00,
2013-01-06 14:14:00,78.1,70.7,30.06,SSE,148,0.0,5.0,78,0.00,,,0.00,Wunderground v.1.13,2013-01-06 19:14:00,
2013-01-06 14:19:00,78.7,71.3,30.06,SSE,160,6.0,6.0,78,0.00,,,0.00,Wunderground v.1.13,2013-01-06 19:19:00,
2013-01-06 14:24:00,79.0,71.2,30.06,South,180,6.0,9.0,77,0.00,,,0.00,Wunderground v.1.13,2013-01-06 19:24:00,
2013-01-06 14:29:00,79.8,71.9,30.06,South,181,4.0,4.0,77,0.00,,,0.00,Wunderground v.1.13,2013-01-06 19:29:00,
2013-01-06 14:35:00,79.7,71.8,30.06,South,183,3.0,4.0,77,0.00,,,0.00,Wunderground v.1.13,2013-01-06 19:35:00,
2013-01-06 14:40:00,79.4,71.6,30.06,SSW,194,3.0,4.0,77,0.00,,,0.00,Wunderground v.1.13,2013-01-06 19:40:00,
2013-01-06 14:45:00,79.5,72.0,30.06,South,187,5.0,5.0,78,0.00,,,0.00,Wunderground v.1.13,2013-01-06 19:45:00,
2013-01-06 14:51:00,79.6,72.1,30.06,WSW,245,2.0,5.0,78,0.00,,,0.00,Wunderground v.1.13,2013-01-06 19:51:00,
2013-01-06 14:56:00,79.6,72.1,30.06,SW,214,6.0,6.0,78,0.00,,,0.00,Wunderground v.1.13,2013-01-06 19:56:00,
2013-01-06 15:01:00,79.1,72.0,30.06,WSW,237,3.0,7.0,79,0.00,,,0.00,Wunderground v.1.13,2013-01-06 20:01:00,
2013-01-06 15:06:00,78.7,71.6,30.06,SW,224,6.0,15.0,79,0.00,,,0.00,Wunderground v.1.13,2013-01-06 20:06:00,
2013-01-06 15:11:00,78.4,71.3,30.06,SSW,206,4.0,9.0,79,0.00,,,0.00,Wunderground v.1.13,2013-01-06 20:11:00,
2013-01-06 15:14:00,78.4,71.7,30.06,WSW,240,5.0,9.0,80,0.00,,,0.00,Wunderground v.1.13,2013-01-06 20:14:00,
2013-01-06 15:19:00,78.5,71.8,30.06,West,263,3.0,7.0,80,0.00,,,0.00,Wunderground v.1.13,2013-01-06 20:19:00,
2013-01-06 15:24:00,78.8,71.7,30.06,WSW,250,1.0,5.0,79,0.00,,,0.00,Wunderground v.1.13,2013-01-06 20:24:00,
2013-01-06 15:29:00,79.2,72.1,30.06,SW,218,8.0,8.0,79,0.00,,,0.00,Wunderground v.1.13,2013-01-06 20:29:00,
2013-01-06 15:34:00,79.2,72.1,30.06,SSW,206,4.0,7.0,79,0.00,,,0.00,Wunderground v.1.13,2013-01-06 20:34:00,
2013-01-06 15:39:00,78.5,71.8,30.06,SW,220,3.0,10.0,80,0.00,,,0.00,Wunderground v.1.13,2013-01-06 20:39:00,
2013-01-06 15:45:00,78.0,71.7,30.06,SSW,204,0.0,4.0,81,0.00,,,0.00,Wunderground v.1.13,2013-01-06 20:45:00,
2013-01-06 15:50:00,78.0,71.7,30.07,SW,219,5.0,5.0,81,0.00,,,0.00,Wunderground v.1.13,2013-01-06 20:50:00,
2013-01-06 15:55:00,77.4,71.5,30.07,SSW,192,6.0,6.0,82,0.00,,,0.00,Wunderground v.1.13,2013-01-06 20:55:00,
2013-01-06 16:00:00,77.0,71.4,30.07,SSW,204,3.0,4.0,83,0.00,,,0.00,Wunderground v.1.13,2013-01-06 21:00:00,
2013-01-06 16:01:00,77.0,71.4,30.07,SSW,211,6.0,6.0,83,0.00,,,0.00,Wunderground v.1.13,2013-01-06 21:01:00,
2013-01-06 16:06:00,76.8,71.2,30.07,SSW,213,3.0,6.0,83,0.00,,,0.00,Wunderground v.1.13,2013-01-06 21:06:00,
2013-01-06 16:11:00,76.4,71.2,30.07,SW,218,6.0,6.0,84,0.00,,,0.00,Wunderground v.1.13,2013-01-06 21:11:00,
2013-01-06 16:16:00,76.0,70.8,30.07,SW,223,4.0,4.0,84,0.00,,,0.00,Wunderground v.1.13,2013-01-06 21:16:00,
2013-01-06 16:21:00,75.8,70.6,30.07,West,259,5.0,5.0,84,0.00,,,0.00,Wunderground v.1.13,2013-01-06 21:21:00,
2013-01-06 16:26:00,75.6,70.4,30.07,WSW,250,3.0,4.0,84,0.00,,,0.00,Wunderground v.1.13,2013-01-06 21:26:00,
2013-01-06 16:31:00,75.3,70.5,30.07,WSW,254,5.0,6.0,85,0.00,,,0.00,Wunderground v.1.13,2013-01-06 21:31:00,
2013-01-06 16:36:00,75.0,70.2,30.07,WSW,244,5.0,5.0,85,0.00,,,0.00,Wunderground v.1.13,2013-01-06 21:36:00,
2013-01-06 16:41:00,74.7,69.9,30.07,West,273,1.0,3.0,85,0.00,,,0.00,Wunderground v.1.13,2013-01-06 21:41:00,
2013-01-06 16:46:00,74.5,70.0,30.07,West,273,0.0,3.0,86,0.00,,,0.00,Wunderground v.1.13,2013-01-06 21:46:00,
2013-01-06 16:52:00,74.4,69.9,30.07,West,273,3.0,4.0,86,0.00,,,0.00,Wunderground v.1.13,2013-01-06 21:52:00,
2013-01-06 16:57:00,74.2,69.7,30.08,West,267,4.0,4.0,86,0.00,,,0.00,Wunderground v.1.13,2013-01-06 21:57:00,
2013-01-06 17:02:00,74.1,70.0,30.08,West,267,3.0,5.0,87,0.00,,,0.00,Wunderground v.1.13,2013-01-06 22:02:00,
2013-01-06 17:07:00,73.4,68.3,30.09,WNW,298,0.0,7.0,84,0.00,,,0.00,Wunderground v.1.13,2013-01-06 22:07:00,
2013-01-06 17:12:00,72.1,67.0,30.09,West,272,6.0,7.0,84,0.00,,,0.00,Wunderground v.1.13,2013-01-06 22:12:00,
2013-01-06 17:17:00,71.1,66.7,30.08,West,276,3.0,6.0,86,0.00,,,0.00,Wunderground v.1.13,2013-01-06 22:17:00,
2013-01-06 17:22:00,70.1,65.7,30.08,NW,305,2.0,5.0,86,0.00,,,0.00,Wunderground v.1.13,2013-01-06 22:22:00,
2013-01-06 17:28:00,69.4,65.4,30.08,WNW,303,5.0,5.0,87,0.00,,,0.00,Wunderground v.1.13,2013-01-06 22:28:00,
2013-01-06 17:33:00,68.9,65.2,30.09,WNW,303,2.0,5.0,88,0.00,,,0.00,Wunderground v.1.13,2013-01-06 22:33:00,
2013-01-06 17:38:00,68.3,64.9,30.09,NW,309,1.0,8.0,89,0.00,,,0.00,Wunderground v.1.13,2013-01-06 22:38:00,
2013-01-06 17:43:00,68.1,64.7,30.09,NW,309,1.0,3.0,89,0.00,,,0.00,Wunderground v.1.13,2013-01-06 22:43:00,
2013-01-06 17:49:00,67.8,64.8,30.10,NW,309,0.0,4.0,90,0.00,,,0.00,Wunderground v.1.13,2013-01-06 22:49:00,
2013-01-06 17:54:00,67.7,64.7,30.09,NW,314,3.0,8.0,90,0.00,,,0.00,Wunderground v.1.13,2013-01-06 22:54:00,
2013-01-06 17:59:00,67.5,64.5,30.09,NW,315,2.0,8.0,90,0.00,,,0.00,Wunderground v.1.13,2013-01-06 22:59:00,
2013-01-06 18:04:00,67.4,64.7,30.09,NW,318,4.0,8.0,91,0.00,,,0.00,Wunderground v.1.13,2013-01-06 23:04:00,
2013-01-06 18:09:00,67.4,64.7,30.09,NW,315,0.0,2.0,91,0.00,,,0.00,Wunderground v.1.13,2013-01-06 23:09:00,
2013-01-06 18:15:00,67.4,64.7,30.09,NW,310,3.0,3.0,91,0.00,,,0.00,Wunderground v.1.13,2013-01-06 23:15:00,
2013-01-06 18:20:00,67.4,65.0,30.09,NW,310,3.0,4.0,92,0.00,,,0.00,Wunderground v.1.13,2013-01-06 23:20:00,
2013-01-06 18:25:00,67.5,65.1,30.10,WNW,286,4.0,10.0,92,0.00,,,0.00,Wunderground v.1.13,2013-01-06 23:25:00,
2013-01-06 18:30:00,67.4,65.0,30.09,NW,322,10.0,10.0,92,0.00,,,0.00,Wunderground v.1.13,2013-01-06 23:30:00,
2013-01-06 18:35:00,67.4,65.0,30.10,NW,309,4.0,4.0,92,0.00,,,0.00,Wunderground v.1.13,2013-01-06 23:35:00,
2013-01-06 18:40:00,67.3,64.9,30.10,NW,311,0.0,3.0,92,0.00,,,0.00,Wunderground v.1.13,2013-01-06 23:40:00,
2013-01-06 18:45:00,67.3,64.9,30.10,NW,310,0.0,3.0,92,0.00,,,0.00,Wunderground v.1.13,2013-01-06 23:45:00,
2013-01-06 18:50:00,67.3,65.2,30.10,NW,322,0.0,3.0,93,0.00,,,0.00,Wunderground v.1.13,2013-01-06 23:50:00,
2013-01-06 18:55:00,67.3,65.2,30.10,NW,322,0.0,2.0,93,0.00,,,0.00,Wunderground v.1.13,2013-01-06 23:55:00,
2013-01-06 19:00:00,67.4,65.3,30.09,NW,322,0.0,1.0,93,0.00,,,0.00,Wunderground v.1.13,2013-01-07 00:00:00,
2013-01-06 19:05:00,67.4,65.3,30.09,NW,322,0.0,3.0,93,0.00,,,0.00,Wunderground v.1.13,2013-01-07 00:05:00,
2013-01-06 19:10:00,67.4,65.3,30.09,NW,322,0.0,0.0,93,0.00,,,0.00,Wunderground v.1.13,2013-01-07 00:10:00,
2013-01-06 19:15:00,67.4,65.3,30.09,NW,322,0.0,0.0,93,0.00,,,0.00,Wunderground v.1.13,2013-01-07 00:15:00,
2013-01-06 19:21:00,67.3,65.2,30.09,NW,322,0.0,0.0,93,0.00,,,0.00,Wunderground v.1.13,2013-01-07 00:21:00,
2013-01-06 19:26:00,67.3,65.2,30.09,NW,322,0.0,0.0,93,0.00,,,0.00,Wunderground v.1.13,2013-01-07 00:26:00,
2013-01-06 19:31:00,67.3,65.2,30.09,NW,322,0.0,0.0,93,0.00,,,0.00,Wunderground v.1.13,2013-01-07 00:31:00,
2013-01-06 19:36:00,67.2,65.1,30.09,NW,322,0.0,0.0,93,0.00,,,0.00,Wunderground v.1.13,2013-01-07 00:36:00,
2013-01-06 19:41:00,67.2,65.1,30.09,NW,322,0.0,0.0,93,0.00,,,0.00,Wunderground v.1.13,2013-01-07 00:41:00,
2013-01-06 19:46:00,67.2,65.1,30.09,NW,322,0.0,0.0,93,0.00,,,0.00,Wunderground v.1.13,2013-01-07 00:46:00,
2013-01-06 19:51:00,67.1,65.0,30.09,NW,322,0.0,0.0,93,0.00,,,0.00,Wunderground v.1.13,2013-01-07 00:51:00,
2013-01-06 19:56:00,67.1,65.0,30.09,NW,322,0.0,0.0,93,0.00,,,0.00,Wunderground v.1.13,2013-01-07 00:56:00,
2013-01-06 20:01:00,67.2,65.1,30.09,NW,322,0.0,0.0,93,0.00,,,0.00,Wunderground v.1.13,2013-01-07 01:01:00,
2013-01-06 20:07:00,67.2,65.1,30.09,NW,322,0.0,0.0,93,0.00,,,0.00,Wunderground v.1.13,2013-01-07 01:07:00,
2013-01-06 20:12:00,67.2,65.1,30.09,NW,322,0.0,0.0,93,0.00,,,0.00,Wunderground v.1.13,2013-01-07 01:12:00,
2013-01-06 20:17:00,67.2,65.4,30.09,NW,322,0.0,0.0,94,0.00,,,0.00,Wunderground v.1.13,2013-01-07 01:17:00,
2013-01-06 20:22:00,67.3,65.5,30.10,NW,322,0.0,0.0,94,0.00,,,0.00,Wunderground v.1.13,2013-01-07 01:22:00,
2013-01-06 20:27:00,67.3,65.5,30.10,NW,322,0.0,0.0,94,0.00,,,0.00,Wunderground v.1.13,2013-01-07 01:27:00,
2013-01-06 20:32:00,67.4,65.6,30.10,NW,322,0.0,0.0,94,0.00,,,0.00,Wunderground v.1.13,2013-01-07 01:32:00,
2013-01-06 20:37:00,67.4,65.6,30.10,NW,322,0.0,0.0,94,0.00,,,0.00,Wunderground v.1.13,2013-01-07 01:37:00,
2013-01-06 20:42:00,67.5,65.7,30.10,NW,322,0.0,0.0,94,0.00,,,0.00,Wunderground v.1.13,2013-01-07 01:42:00,
2013-01-06 20:47:00,67.5,65.7,30.10,NW,322,0.0,2.0,94,0.00,,,0.00,Wunderground v.1.13,2013-01-07 01:47:00,
2013-01-06 20:53:00,67.4,65.6,30.11,NW,322,0.0,2.0,94,0.00,,,0.00,Wunderground v.1.13,2013-01-07 01:53:00,
2013-01-06 20:58:00,67.3,65.5,30.11,NW,322,0.0,1.0,94,0.00,,,0.01,Wunderground v.1.13,2013-01-07 01:58:00,
2013-01-06 21:03:00,67.2,65.4,30.11,NW,322,2.0,2.0,94,0.00,,,0.01,Wunderground v.1.13,2013-01-07 02:03:00,
2013-01-06 21:08:00,67.1,65.3,30.11,NW,322,2.0,2.0,94,0.00,,,0.01,Wunderground v.1.13,2013-01-07 02:08:00,
2013-01-06 21:13:00,66.9,65.1,30.10,NW,322,1.0,4.0,94,0.00,,,0.01,Wunderground v.1.13,2013-01-07 02:13:00,
2013-01-06 21:18:00,66.8,65.0,30.10,NW,322,0.0,2.0,94,0.00,,,0.02,Wunderground v.1.13,2013-01-07 02:18:00,
2013-01-06 21:23:00,66.7,64.9,30.11,NW,322,0.0,1.0,94,0.00,,,0.02,Wunderground v.1.13,2013-01-07 02:23:00,
2013-01-06 21:28:00,66.7,64.9,30.11,NW,322,0.0,0.0,94,0.07,,,0.03,Wunderground v.1.13,2013-01-07 02:28:00,
2013-01-06 21:34:00,66.7,64.9,30.11,NW,322,1.0,1.0,94,0.07,,,0.03,Wunderground v.1.13,2013-01-07 02:34:00,
2013-01-06 21:39:00,66.7,64.9,30.11,NW,322,0.0,0.0,94,0.05,,,0.04,Wunderground v.1.13,2013-01-07 02:39:00,
2013-01-06 21:44:00,66.7,64.9,30.11,NW,322,0.0,0.0,94,0.05,,,0.04,Wunderground v.1.13,2013-01-07 02:44:00,
2013-01-06 21:49:00,66.6,64.8,30.11,NW,322,0.0,0.0,94,0.05,,,0.04,Wunderground v.1.13,2013-01-07 02:49:00,
2013-01-06 21:54:00,66.6,64.8,30.11,NW,322,0.0,3.0,94,0.04,,,0.04,Wunderground v.1.13,2013-01-07 02:54:00,
2013-01-06 21:59:00,66.6,64.8,30.12,NW,322,4.0,5.0,94,0.00,,,0.04,Wunderground v.1.13,2013-01-07 02:59:00,
2013-01-06 22:04:00,66.6,64.8,30.11,NW,322,2.0,3.0,94,0.00,,,0.04,Wunderground v.1.13,2013-01-07 03:04:00,
2013-01-06 22:09:00,66.7,64.9,30.12,NW,322,2.0,6.0,94,0.00,,,0.04,Wunderground v.1.13,2013-01-07 03:09:00,
2013-01-06 22:14:00,66.6,64.8,30.12,NW,326,0.0,8.0,94,0.00,,,0.04,Wunderground v.1.13,2013-01-07 03:14:00,
2013-01-06 22:19:00,66.5,64.7,30.11,NW,313,1.0,2.0,94,0.00,,,0.04,Wunderground v.1.13,2013-01-07 03:19:00,
2013-01-06 22:25:00,66.1,64.6,30.12,NNE,17,1.0,3.0,95,0.00,,,0.04,Wunderground v.1.13,2013-01-07 03:25:00,
2013-01-06 22:30:00,65.8,64.3,30.12,NW,326,4.0,4.0,95,0.00,,,0.04,Wunderground v.1.13,2013-01-07 03:30:00,
2013-01-06 22:35:00,65.5,64.0,30.12,North,360,5.0,11.0,95,0.00,,,0.04,Wunderground v.1.13,2013-01-07 03:35:00,
2013-01-06 22:40:00,65.2,63.4,30.12,NNE,13,4.0,5.0,94,0.00,,,0.04,Wunderground v.1.13,2013-01-07 03:40:00,
2013-01-06 22:45:00,65.1,63.3,30.12,North,360,0.0,2.0,94,0.00,,,0.04,Wunderground v.1.13,2013-01-07 03:45:00,
2013-01-06 22:50:00,65.0,63.5,30.12,North,355,0.0,2.0,95,0.00,,,0.05,Wunderground v.1.13,2013-01-07 03:50:00,
2013-01-06 22:55:00,65.0,63.5,30.12,NNW,331,0.0,4.0,95,0.00,,,0.05,Wunderground v.1.13,2013-01-07 03:55:00,
2013-01-06 23:00:00,65.0,63.5,30.12,NNW,331,3.0,3.0,95,0.00,,,0.05,Wunderground v.1.13,2013-01-07 04:00:00,
2013-01-06 23:06:00,64.9,63.4,30.12,NNW,341,0.0,5.0,95,0.00,,,0.05,Wunderground v.1.13,2013-01-07 04:06:00,
2013-01-06 23:11:00,64.9,63.4,30.12,NNW,341,0.0,3.0,95,0.00,,,0.05,Wunderground v.1.13,2013-01-07 04:11:00,
2013-01-06 23:16:00,64.9,63.4,30.12,NNW,342,0.0,2.0,95,0.00,,,0.05,Wunderground v.1.13,2013-01-07 04:16:00,
2013-01-06 23:21:00,64.9,63.4,30.12,North,360,6.0,6.0,95,0.00,,,0.05,Wunderground v.1.13,2013-01-07 04:21:00,
2013-01-06 23:26:00,64.9,63.4,30.12,North,360,0.0,1.0,95,0.00,,,0.05,Wunderground v.1.13,2013-01-07 04:26:00,
2013-01-06 23:31:00,64.9,63.4,30.12,North,360,1.0,4.0,95,0.00,,,0.05,Wunderground v.1.13,2013-01-07 04:31:00,
2013-01-06 23:36:00,65.0,63.5,30.12,North,355,1.0,1.0,95,0.00,,,0.05,Wunderground v.1.13,2013-01-07 04:36:00,
2013-01-06 23:41:00,65.0,63.5,30.12,North,360,0.0,1.0,95,0.00,,,0.05,Wunderground v.1.13,2013-01-07 04:41:00,
2013-01-06 23:46:00,65.0,63.5,30.12,North,360,5.0,6.0,95,0.00,,,0.05,Wunderground v.1.13,2013-01-07 04:46:00,
2013-01-06 23:52:00,65.0,63.5,30.11,NNE,18,0.0,7.0,95,0.00,,,0.05,Wunderground v.1.13,2013-01-07 04:52:00,
2013-01-06 23:57:00,65.0,63.5,30.12,NNE,17,1.0,2.0,95,0.00,,,0.05,Wunderground v.1.13,2013-01-07 04:57:00,